• In Deutschland
  • Länderverzeichnis
  • Für 7 Tage
  • Wassertemperatur
  • Satellitenkarten
  • Wetterkarte
  • Widgets
  • user-avatar
    Anmelden

    Stündliche Wetter Lubumbaschi

    Heute, 22 September, Samstag

    Zeit Temperatur Niederschläge Wind Luftdruck Luftfeuchtigkeit
    00:00 +35°C° 0 mm 4 m/S 717 mmHg 39%
    01:00 +34°C° 0 mm 4 m/S 717 mmHg 42%
    02:00 +33°C° 0 mm 4 m/S 717 mmHg 46%
    03:00 +33°C° 0.5 mm 3 m/S 717 mmHg 50%
    04:00 +31°C° 0.5 mm 3 m/S 718 mmHg 54%
    05:00 +30°C° 0.5 mm 3 m/S 718 mmHg 58%
    06:00 +30°C° 0.5 mm 3 m/S 718 mmHg 57%
    07:00 +32°C° 0.5 mm 4 m/S 719 mmHg 56%
    08:00 +32°C° 0.5 mm 5 m/S 719 mmHg 56%
    09:00 +33°C° 0 mm 5 m/S 719 mmHg 51%
    10:00 +35°C° 0 mm 5 m/S 719 mmHg 46%
    11:00 +36°C° 0 mm 5 m/S 720 mmHg 41%
    12:00 +37°C° 0 mm 4 m/S 719 mmHg 38%
    13:00 +38°C° 0 mm 4 m/S 718 mmHg 36%
    14:00 +39°C° 0 mm 3 m/S 718 mmHg 34%
    15:00 +39°C° 0 mm 3 m/S 717 mmHg 33%
    16:00 +39°C° 0 mm 2 m/S 717 mmHg 33%
    17:00 +39°C° 0 mm 2 m/S 717 mmHg 32%
    18:00 +38°C° 0 mm 2 m/S 717 mmHg 34%
    19:00 +37°C° 0 mm 2 m/S 717 mmHg 36%
    20:00 +36°C° 0 mm 2 m/S 718 mmHg 38%
    21:00 +36°C° 0 mm 2 m/S 718 mmHg 40%
    22:00 +35°C° 0 mm 3 m/S 718 mmHg 43%
    23:00 +34°C° 0 mm 3 m/S 718 mmHg 45%

    Morgen, 23 September, Sonntag

    Zeit Temperatur Niederschläge Wind Luftdruck Luftfeuchtigkeit
    00:00 +32°C° 0.4 mm 2 m/S 718 mmHg 50%
    01:00 +31°C° 0.4 mm 2 m/S 718 mmHg 55%
    02:00 +30°C° 0.4 mm 1 m/S 718 mmHg 60%
    03:00 +30°C° 0 mm 2 m/S 718 mmHg 60%
    04:00 +30°C° 0 mm 2 m/S 718 mmHg 61%
    05:00 +30°C° 0 mm 2 m/S 718 mmHg 61%
    06:00 +30°C° 0 mm 2 m/S 718 mmHg 59%
    07:00 +31°C° 0 mm 3 m/S 719 mmHg 56%
    08:00 +31°C° 0 mm 3 m/S 719 mmHg 54%
    09:00 +34°C° 0 mm 3 m/S 720 mmHg 48%
    10:00 +36°C° 0 mm 3 m/S 720 mmHg 43%
    11:00 +37°C° 0 mm 3 m/S 720 mmHg 37%
    12:00 +38°C° 0 mm 4 m/S 719 mmHg 33%
    13:00 +40°C° 0 mm 4 m/S 718 mmHg 30%
    14:00 +41°C° 0 mm 5 m/S 718 mmHg 26%
    15:00 +41°C° 0 mm 5 m/S 717 mmHg 27%
    16:00 +41°C° 0 mm 5 m/S 717 mmHg 27%
    17:00 +40°C° 0 mm 4 m/S 717 mmHg 28%
    18:00 +38°C° 0 mm 4 m/S 717 mmHg 31%
    19:00 +37°C° 0 mm 4 m/S 718 mmHg 33%
    20:00 +36°C° 0 mm 4 m/S 718 mmHg 36%
    21:00 +35°C° 0.2 mm 4 m/S 718 mmHg 39%
    22:00 +34°C° 0.2 mm 4 m/S 719 mmHg 43%
    23:00 +33°C° 0.2 mm 3 m/S 719 mmHg 46%

    übermorgen, 24 September, Montag

    Zeit Temperatur Niederschläge Wind Luftdruck Luftfeuchtigkeit
    00:00 +32°C° 0.8 mm 4 m/S 718 mmHg 51%
    01:00 +30°C° 0.8 mm 4 m/S 718 mmHg 56%
    02:00 +29°C° 0.8 mm 4 m/S 718 mmHg 60%
    03:00 +29°C° 0 mm 3 m/S 718 mmHg 61%
    04:00 +29°C° 0 mm 3 m/S 717 mmHg 61%
    05:00 +29°C° 0 mm 2 m/S 717 mmHg 61%
    06:00 +30°C° 0 mm 2 m/S 718 mmHg 58%
    07:00 +31°C° 0 mm 2 m/S 718 mmHg 54%
    08:00 +31°C° 0 mm 2 m/S 719 mmHg 50%
    09:00 +34°C° 0 mm 2 m/S 719 mmHg 45%
    10:00 +36°C° 0 mm 2 m/S 719 mmHg 40%
    11:00 +38°C° 0 mm 2 m/S 720 mmHg 35%
    12:00 +38°C° 0 mm 2 m/S 719 mmHg 33%
    13:00 +39°C° 0 mm 1 m/S 718 mmHg 30%
    14:00 +37°C° 0 mm 0 m/S 717 mmHg 28%
    15:00 +37°C° 0 mm 0 m/S 717 mmHg 28%
    16:00 +37°C° 0 mm 0 m/S 717 mmHg 29%
    17:00 +39°C° 0 mm 1 m/S 717 mmHg 30%
    18:00 +39°C° 0.2 mm 1 m/S 717 mmHg 32%
    19:00 +37°C° 0.2 mm 1 m/S 717 mmHg 33%
    20:00 +37°C° 0.2 mm 2 m/S 717 mmHg 35%
    21:00 +37°C° 0 mm 2 m/S 717 mmHg 37%
    22:00 +36°C° 0 mm 2 m/S 717 mmHg 39%
    23:00 +35°C° 0 mm 2 m/S 718 mmHg 41%

    25 September, Dienstag

    Zeit Temperatur Niederschläge Wind Luftdruck Luftfeuchtigkeit
    00:00 +34°C° 0.2 mm 3 m/S 717 mmHg 43%
    01:00 +34°C° 0.2 mm 4 m/S 717 mmHg 46%
    02:00 +33°C° 0.2 mm 5 m/S 717 mmHg 48%
    03:00 +32°C° 0 mm 5 m/S 717 mmHg 53%
    04:00 +30°C° 0 mm 4 m/S 717 mmHg 57%
    05:00 +29°C° 0 mm 4 m/S 717 mmHg 61%
    06:00 +30°C° 0 mm 4 m/S 718 mmHg 60%
    07:00 +30°C° 0 mm 4 m/S 718 mmHg 58%
    08:00 +32°C° 0 mm 4 m/S 719 mmHg 57%
    09:00 +33°C° 0 mm 4 m/S 719 mmHg 52%
    10:00 +35°C° 0 mm 4 m/S 719 mmHg 46%
    11:00 +37°C° 0 mm 4 m/S 719 mmHg 41%
    12:00 +38°C° 0 mm 4 m/S 718 mmHg 38%
    13:00 +39°C° 0 mm 3 m/S 718 mmHg 35%
    14:00 +39°C° 0 mm 3 m/S 717 mmHg 31%
    15:00 +39°C° 0 mm 3 m/S 717 mmHg 32%
    16:00 +39°C° 0 mm 2 m/S 717 mmHg 33%
    17:00 +38°C° 0 mm 2 m/S 717 mmHg 33%
    18:00 +38°C° 0 mm 2 m/S 717 mmHg 36%
    19:00 +37°C° 0 mm 2 m/S 717 mmHg 38%
    20:00 +36°C° 0 mm 2 m/S 717 mmHg 40%
    21:00 +35°C° 0.2 mm 3 m/S 718 mmHg 44%
    22:00 +34°C° 0.2 mm 4 m/S 718 mmHg 47%
    23:00 +33°C° 0.2 mm 5 m/S 719 mmHg 51%

    26 September, Mittwoch

    Zeit Temperatur Niederschläge Wind Luftdruck Luftfeuchtigkeit
    00:00 +32°C° 0.7 mm 4 m/S 718 mmHg 55%
    01:00 +30°C° 0.7 mm 4 m/S 718 mmHg 59%
    02:00 +30°C° 0.7 mm 4 m/S 718 mmHg 64%
    03:00 +29°C° 1.5 mm 4 m/S 718 mmHg 67%
    04:00 +28°C° 1.5 mm 5 m/S 719 mmHg 71%
    05:00 +27°C° 1.5 mm 5 m/S 719 mmHg 75%
    06:00 +27°C° 0.1 mm 5 m/S 719 mmHg 72%
    07:00 +28°C° 0.1 mm 5 m/S 720 mmHg 70%
    08:00 +28°C° 0.1 mm 4 m/S 720 mmHg 67%
    09:00 +30°C° 0 mm 4 m/S 720 mmHg 61%
    10:00 +32°C° 0 mm 4 m/S 720 mmHg 54%
    11:00 +34°C° 0 mm 4 m/S 720 mmHg 48%
    12:00 +35°C° 0 mm 4 m/S 719 mmHg 42%
    13:00 +37°C° 0 mm 3 m/S 718 mmHg 36%
    14:00 +38°C° 0 mm 3 m/S 717 mmHg 30%
    15:00 +38°C° 0 mm 3 m/S 717 mmHg 30%
    16:00 +38°C° 0 mm 2 m/S 717 mmHg 29%
    17:00 +38°C° 0 mm 2 m/S 717 mmHg 29%
    18:00 +37°C° 0.2 mm 2 m/S 718 mmHg 32%
    19:00 +36°C° 0.2 mm 2 m/S 718 mmHg 35%
    20:00 +35°C° 0.2 mm 2 m/S 718 mmHg 38%
    21:00 +34°C° 0.1 mm 2 m/S 718 mmHg 40%
    22:00 +33°C° 0.1 mm 1 m/S 718 mmHg 42%
    23:00 +32°C° 0.1 mm 1 m/S 718 mmHg 45%

    27 September, Donnerstag

    Zeit Temperatur Niederschläge Wind Luftdruck Luftfeuchtigkeit
    00:00 +32°C° 0 mm 1 m/S 717 mmHg 44%
    01:00 +32°C° 0 mm 1 m/S 717 mmHg 44%
    02:00 +31°C° 0 mm 2 m/S 717 mmHg 44%
    03:00 +31°C° 0 mm 2 m/S 717 mmHg 45%
    04:00 +31°C° 0 mm 2 m/S 717 mmHg 47%
    05:00 +30°C° 0 mm 3 m/S 717 mmHg 48%
    06:00 +31°C° 0 mm 3 m/S 718 mmHg 47%
    07:00 +33°C° 0 mm 4 m/S 719 mmHg 47%
    08:00 +33°C° 0 mm 4 m/S 719 mmHg 46%
    09:00 +35°C° 0 mm 4 m/S 719 mmHg 43%
    10:00 +36°C° 0 mm 4 m/S 719 mmHg 39%
    11:00 +38°C° 0 mm 4 m/S 719 mmHg 36%
    12:00 +38°C° 0 mm 3 m/S 718 mmHg 33%
    13:00 +39°C° 0 mm 2 m/S 718 mmHg 31%
    14:00 +40°C° 0 mm 1 m/S 717 mmHg 28%
    15:00 +40°C° 0 mm 1 m/S 717 mmHg 29%
    16:00 +39°C° 0 mm 1 m/S 717 mmHg 31%
    17:00 +39°C° 0 mm 1 m/S 717 mmHg 32%
    18:00 +38°C° 0.1 mm 2 m/S 717 mmHg 34%
    19:00 +37°C° 0.1 mm 3 m/S 717 mmHg 36%
    20:00 +36°C° 0.1 mm 4 m/S 718 mmHg 38%
    21:00 +35°C° 0.8 mm 4 m/S 718 mmHg 42%
    22:00 +34°C° 0.8 mm 4 m/S 718 mmHg 47%
    23:00 +33°C° 0.8 mm 5 m/S 718 mmHg 52%
    Mehr zeigen